Pocatello, ID

5:19 AM MST on December 11, 2017 (GMT -0700)
Pocatello Regional

Weather History for KPIH - June, 2013

Change the Weather History Date:

Thursday, June 6, 2013

  Actual Average Record
Temperature  
Mean Temperature 63 °F 59 °F  
Max Temperature 82 °F 74 °F 97 °F (1977)
Min Temperature 44 °F 44 °F 33 °F (1962)
Degree Days  
Heating Degree Days 2 6  
Month to date heating degree days 31 41  
Since 1 June heating degree days 31 41  
Since 1 July heating degree days 6858 7088  
Cooling Degree Days 0 1  
Month to date cooling degree days 0 5  
Year to date cooling degree days 9 10  
Since 1 June cooling degree days 0 5  
Growing Degree Days 15 (Base 50)    
Moisture  
Dew Point 37 °F    
Average Humidity 41    
Maximum Humidity 65    
Minimum Humidity 17    
Precipitation  
Precipitation T in 0.04 in 1.45 in (2007)
Month to date precipitation T 0.27  
Year to date precipitation 2.95 6.10  
Snow  
Snow 0.00 in - - ()
Month to date snowfall 0.0  
Since 1 June snowfall 0.0  
Since 1 July snowfall 37.8  
Snow Depth 0.00 in    
Sea Level Pressure  
Sea Level Pressure 29.95 in    
Wind  
Wind Speed 7 mph (NNE)    
Max Wind Speed 30 mph    
Max Gust Speed 38 mph    
Visibility 10 miles    
Events      
T = Trace of Precipitation, MM = Missing Value Source: NWS Daily Summary

Daily Weather History Graph

Daily Weather History Graph

Search for Another Location

Airport or City:

Trip Planner

Search our weather history database for the weather conditions in past years. The results will help you decide how hot, cold, wet, or windy it might be!

Date:

Astronomy

Jun. 06, 2013 Rise Set
Actual Time 5:52 AM MDT 9:06 PM MDT
Civil Twilight 5:17 AM MDT 9:41 PM MDT
Nautical Twilight 4:32 AM MDT 10:26 PM MDT
Astronomical Twilight 3:38 AM MDT 11:21 PM MDT
Moon 4:38 AM MDT (6/6) 7:29 PM MDT (6/6)
Length of Visible Light 16h 23m
Length of Day
15h 14m
Waning Crescent, 3% of the Moon is Illuminated
Jun 6
Waning Crescent
Jun 8
New
Jun 16
First Quarter
Jun 23
Full
Jun 29
Last Quarter

Hourly Weather History & Observations

Time (MDT) Temp. Dew Point Humidity Pressure Visibility Wind Dir Wind Speed Gust Speed Precip Events Conditions
12:53 AM 55.9 °F 35.1 °F 45% 29.94 in 10.0 mi ESE 3.5 mph - N/A   Clear
1:53 AM 53.1 °F 35.1 °F 50% 29.95 in 10.0 mi Calm Calm - N/A   Clear
2:53 AM 52.0 °F 34.0 °F 50% 29.94 in 10.0 mi Calm Calm - N/A   Clear
3:53 AM 48.0 °F 35.1 °F 61% 29.96 in 10.0 mi Calm Calm - N/A   Clear
4:53 AM 46.9 °F 36.0 °F 66% 29.97 in 10.0 mi NNE 5.8 mph - N/A   Clear
5:53 AM 48.9 °F 35.1 °F 59% 29.97 in 10.0 mi East 6.9 mph - N/A   Clear
6:53 AM 50.0 °F 37.0 °F 61% 29.98 in 10.0 mi SE 3.5 mph - N/A   Clear
7:53 AM 57.9 °F 39.0 °F 49% 29.98 in 10.0 mi North 9.2 mph - N/A   Clear
8:53 AM 64.0 °F 35.1 °F 34% 29.99 in 10.0 mi Variable 4.6 mph - N/A   Clear
9:53 AM 69.1 °F 39.9 °F 35% 30.00 in 10.0 mi Variable 4.6 mph - N/A   Clear
10:53 AM 73.9 °F 39.0 °F 28% 29.99 in 10.0 mi West 9.2 mph - N/A   Clear
11:53 AM 75.0 °F 39.0 °F 27% 29.98 in 10.0 mi WNW 9.2 mph - N/A   Clear
12:53 PM 79.0 °F 36.0 °F 21% 29.97 in 10.0 mi WNW 9.2 mph - N/A   Clear
1:53 PM 81.0 °F 37.0 °F 21% 29.96 in 10.0 mi NW 9.2 mph - N/A   Clear
2:53 PM 80.1 °F 33.1 °F 18% 29.96 in 10.0 mi WNW 4.6 mph - N/A   Clear
3:53 PM 81.0 °F 34.0 °F 18% 29.95 in 10.0 mi West 9.2 mph - N/A   Partly Cloudy
4:53 PM 81.0 °F 32.0 °F 17% 29.94 in 10.0 mi Variable 3.5 mph - N/A   Partly Cloudy
5:53 PM 80.1 °F 32.0 °F 17% 29.91 in 10.0 mi Variable 4.6 mph - N/A   Partly Cloudy
6:53 PM 80.1 °F 32.0 °F 17% 29.91 in 10.0 mi Calm Calm - N/A   Clear
7:29 PM 71.6 °F 44.6 °F 38% 30.04 in 10.0 mi North 23.0 mph 35.7 mph N/A   Scattered Clouds
7:53 PM 73.0 °F 41.0 °F 31% 29.91 in 10.0 mi NE 24.2 mph 31.1 mph 0.00 in   Scattered Clouds
8:53 PM 70.0 °F 42.1 °F 36% 29.89 in 10.0 mi ESE 11.5 mph - N/A   Scattered Clouds
9:53 PM 66.9 °F 39.9 °F 37% 29.90 in 10.0 mi East 5.8 mph - N/A   Scattered Clouds
10:53 PM 62.1 °F 39.0 °F 43% 29.91 in 10.0 mi SSW 6.9 mph - N/A   Clear
11:53 PM 62.1 °F 41.0 °F 46% 29.89 in 10.0 mi ENE 3.5 mph - N/A   Clear